TimeCST,TemperatureF,Dew PointF,Humidity,Sea Level PressureIn,VisibilityMPH,Wind Direction,Wind SpeedMPH,Gust SpeedMPH,PrecipitationIn,Events,Conditions,WindDirDegrees,DateUTC
12:12 AM,12.6,6.1,75,30.34,10.0,SSW,3.5,-,N/A,,Clear,200,2012-11-27 06:12:00
12:33 AM,12.2,5.9,76,30.34,10.0,SSW,3.5,-,N/A,,Clear,210,2012-11-27 06:33:00
12:52 AM,13.3,6.6,75,30.33,10.0,South,4.6,-,N/A,,Clear,190,2012-11-27 06:52:00
1:12 AM,14.7,6.8,71,30.32,10.0,South,5.8,-,N/A,,Clear,180,2012-11-27 07:12:00
1:32 AM,15.4,6.8,69,30.32,10.0,SSW,3.5,-,N/A,,Clear,200,2012-11-27 07:32:00
1:52 AM,13.5,6.6,74,30.33,10.0,SSW,3.5,-,N/A,,Clear,210,2012-11-27 07:52:00
2:13 AM,13.8,7.0,74,30.32,10.0,SW,6.9,-,N/A,,Clear,220,2012-11-27 08:13:00
2:32 AM,15.3,7.7,72,30.32,10.0,SSW,6.9,-,N/A,,Clear,210,2012-11-27 08:32:00
2:52 AM,16.2,8.1,70,30.32,10.0,SSW,9.2,-,N/A,,Clear,210,2012-11-27 08:52:00
3:12 AM,16.2,8.1,70,30.31,10.0,SSW,9.2,-,N/A,,Clear,210,2012-11-27 09:12:00
3:32 AM,16.5,8.6,71,30.30,10.0,SSW,8.1,-,N/A,,Clear,210,2012-11-27 09:32:00
3:53 AM,16.7,8.6,70,30.29,10.0,SSW,8.1,-,N/A,,Scattered Clouds,210,2012-11-27 09:53:00
4:12 AM,16.9,9.0,71,30.28,10.0,SSW,6.9,-,N/A,,Clear,210,2012-11-27 10:12:00
4:32 AM,17.4,9.5,71,30.27,10.0,SW,6.9,-,N/A,,Clear,220,2012-11-27 10:32:00
4:52 AM,18.1,10.2,71,30.27,10.0,SSW,9.2,-,N/A,,Clear,210,2012-11-27 10:52:00
5:12 AM,18.0,9.7,70,30.27,10.0,SSW,6.9,-,N/A,,Clear,210,2012-11-27 11:12:00
5:32 AM,18.1,9.9,70,30.26,10.0,SSW,5.8,-,N/A,,Clear,200,2012-11-27 11:32:00
5:52 AM,19.0,10.4,69,30.26,10.0,SSW,10.4,-,N/A,,Clear,210,2012-11-27 11:52:00
6:12 AM,19.0,10.4,69,30.25,10.0,SSW,10.4,-,N/A,,Clear,210,2012-11-27 12:12:00
6:32 AM,18.3,10.0,70,30.25,10.0,SSW,8.1,-,N/A,,Clear,200,2012-11-27 12:32:00
6:52 AM,17.6,9.7,71,30.24,10.0,SSW,5.8,-,N/A,,Clear,200,2012-11-27 12:52:00
7:12 AM,17.6,9.5,71,30.24,10.0,SSW,6.9,-,N/A,,Clear,200,2012-11-27 13:12:00
7:32 AM,17.6,9.7,71,30.24,10.0,SSW,5.8,-,N/A,,Clear,200,2012-11-27 13:32:00
7:52 AM,18.5,10.0,70,30.23,10.0,SSW,6.9,-,N/A,,Clear,200,2012-11-27 13:52:00
8:12 AM,20.5,10.9,67,30.23,10.0,SSW,6.9,-,N/A,,Clear,200,2012-11-27 14:12:00
8:32 AM,21.9,11.7,65,30.22,10.0,South,6.9,-,N/A,,Clear,190,2012-11-27 14:32:00
8:52 AM,23.5,12.6,63,30.21,10.0,SSW,6.9,-,N/A,,Clear,200,2012-11-27 14:52:00
9:12 AM,24.6,13.1,62,30.20,10.0,SSW,9.2,-,N/A,,Clear,200,2012-11-27 15:12:00
9:33 AM,26.4,13.6,59,30.20,10.0,SSW,13.8,-,N/A,,Clear,210,2012-11-27 15:33:00
9:52 AM,28.0,13.8,55,30.20,10.0,SSW,11.5,18.4,N/A,,Clear,210,2012-11-27 15:52:00
10:12 AM,28.2,13.1,53,30.20,10.0,SSW,16.1,21.9,N/A,,Clear,210,2012-11-27 16:12:00
10:33 AM,29.8,13.6,51,30.19,10.0,SSW,11.5,19.6,N/A,,Clear,210,2012-11-27 16:33:00
10:52 AM,31.5,14.4,49,30.18,10.0,SSW,11.5,18.4,N/A,,Clear,210,2012-11-27 16:52:00
11:13 AM,32.0,15.4,51,30.17,10.0,SW,13.8,-,N/A,,Clear,220,2012-11-27 17:13:00
11:32 AM,32.5,16.3,51,30.16,10.0,SSW,15.0,-,N/A,,Clear,210,2012-11-27 17:32:00
11:52 AM,34.2,17.2,50,30.14,10.0,SSW,17.3,20.7,N/A,,Clear,210,2012-11-27 17:52:00
12:12 PM,34.7,18.0,51,30.13,10.0,SSW,16.1,-,N/A,,Clear,210,2012-11-27 18:12:00
12:32 PM,36.3,19.2,50,30.13,10.0,SW,20.7,-,N/A,,Clear,230,2012-11-27 18:32:00
12:52 PM,39.2,20.5,47,30.12,10.0,SSW,19.6,-,N/A,,Clear,210,2012-11-27 18:52:00
1:12 PM,40.1,21.0,47,30.11,10.0,SW,19.6,26.5,N/A,,Clear,220,2012-11-27 19:12:00
1:32 PM,38.5,21.4,50,30.10,10.0,SSW,18.4,25.3,N/A,,Scattered Clouds,210,2012-11-27 19:32:00
1:52 PM,38.3,21.9,52,30.10,10.0,SSW,18.4,26.5,N/A,,Mostly Cloudy,210,2012-11-27 19:52:00
2:13 PM,38.5,22.1,52,30.09,10.0,SSW,15.0,18.4,N/A,,Mostly Cloudy,210,2012-11-27 20:13:00
2:32 PM,38.3,21.9,52,30.08,10.0,SSW,13.8,23.0,N/A,,Scattered Clouds,210,2012-11-27 20:32:00
2:52 PM,38.3,22.1,52,30.08,10.0,SW,19.6,-,N/A,,Scattered Clouds,220,2012-11-27 20:52:00
3:13 PM,38.5,22.1,52,30.08,10.0,SW,20.7,-,N/A,,Scattered Clouds,220,2012-11-27 21:13:00
3:32 PM,36.9,21.6,54,30.09,10.0,SW,16.1,-,N/A,,Scattered Clouds,220,2012-11-27 21:32:00
3:52 PM,35.8,21.2,55,30.10,10.0,SW,17.3,20.7,N/A,,Scattered Clouds,220,2012-11-27 21:52:00
4:13 PM,34.3,21.0,58,30.10,10.0,SSW,11.5,-,N/A,,Scattered Clouds,210,2012-11-27 22:13:00
4:32 PM,32.7,20.7,61,30.10,10.0,SW,9.2,-,N/A,,Clear,220,2012-11-27 22:32:00
4:52 PM,31.5,19.9,62,30.11,10.0,SSW,6.9,-,N/A,,Clear,210,2012-11-27 22:52:00
5:13 PM,29.3,19.4,67,30.11,10.0,SW,5.8,-,N/A,,Clear,220,2012-11-27 23:13:00
5:52 PM,30.4,20.1,66,30.12,10.0,SSW,3.5,-,N/A,,Scattered Clouds,200,2012-11-27 23:52:00
6:13 PM,28.9,19.4,68,30.13,10.0,SW,8.1,-,N/A,,Clear,220,2012-11-28 00:13:00
6:32 PM,27.0,18.7,71,30.12,10.0,South,5.8,-,N/A,,Clear,190,2012-11-28 00:32:00
6:52 PM,25.9,18.0,72,30.12,10.0,SSW,4.6,-,N/A,,Clear,200,2012-11-28 00:52:00
7:12 PM,25.5,18.0,73,30.13,10.0,SSW,4.6,-,N/A,,Clear,210,2012-11-28 01:12:00
7:32 PM,25.9,18.5,74,30.14,10.0,SSW,3.5,-,N/A,,Clear,200,2012-11-28 01:32:00
7:53 PM,27.7,19.6,72,30.14,10.0,SSW,4.6,-,N/A,,Clear,200,2012-11-28 01:53:00
8:12 PM,27.3,20.1,74,30.15,10.0,Calm,Calm,-,N/A,,Clear,0,2012-11-28 02:12:00
8:32 PM,27.5,20.8,76,30.15,10.0,West,3.5,-,N/A,,Clear,260,2012-11-28 02:32:00
8:52 PM,28.2,21.2,75,30.16,10.0,West,4.6,-,N/A,,Clear,260,2012-11-28 02:52:00
9:12 PM,27.3,20.5,75,30.17,10.0,West,4.6,-,N/A,,Clear,260,2012-11-28 03:12:00
9:32 PM,25.3,18.9,76,30.18,10.0,Calm,Calm,-,N/A,,Clear,0,2012-11-28 03:32:00
9:53 PM,25.3,20.1,81,30.18,10.0,Calm,Calm,-,N/A,,Clear,0,2012-11-28 03:53:00
10:12 PM,25.7,20.3,80,30.19,10.0,SW,3.5,-,N/A,,Clear,230,2012-11-28 04:12:00
10:53 PM,22.3,18.1,84,30.20,10.0,SW,3.5,-,N/A,,Clear,230,2012-11-28 04:53:00
11:12 PM,22.1,17.8,83,30.21,10.0,SSW,4.6,-,N/A,,Clear,210,2012-11-28 05:12:00
11:53 PM,22.3,18.3,85,30.23,10.0,Calm,Calm,-,N/A,,Clear,0,2012-11-28 05:53:00